SN81AG EPGD-EPGD

Flight info

Callsign SN81AG
Flight time 0h 48m
Altitude 1500
Route EPGDS DCT EPGDZ DCT EPKO DCT EPGDZ DCT EPGDS
Aircraft PZ4M/L-VGD/C

Departure

Time 2026-04-27 16:09
Airport Gdańsk Lech Wałęsa Airport (EPGD)

Arrival

Time 2026-04-27 16:57
Airport Gdańsk Lech Wałęsa Airport (EPGD)
Time Latitude Longitude Altitude Speed Heading
2026-04-27 16:04 54.37379 18.49378 493 ft 0 kts 173°
2026-04-27 16:04 54.37379 18.49377 493 ft 0 kts 173°
2026-04-27 16:04 54.37379 18.49378 493 ft 0 kts 173°
2026-04-27 16:05 54.37379 18.49377 493 ft 0 kts 173°
2026-04-27 16:05 54.37365 18.49366 490 ft 1 kts 229°
2026-04-27 16:05 54.37338 18.49342 493 ft 10 kts 203°
2026-04-27 16:06 54.37288 18.49318 493 ft 1 kts 201°
2026-04-27 16:06 54.37249 18.49285 493 ft 11 kts 201°
2026-04-27 16:06 54.37215 18.49261 493 ft 4 kts 204°
2026-04-27 16:06 54.37212 18.49258 493 ft 0 kts 206°
2026-04-27 16:07 54.37192 18.49235 490 ft 10 kts 221°
2026-04-27 16:07 54.37150 18.49102 492 ft 13 kts 273°
2026-04-27 16:07 54.37166 18.48997 489 ft 2 kts 294°
2026-04-27 16:07 54.37169 18.48982 491 ft 4 kts 292°
2026-04-27 16:08 54.37171 18.48976 491 ft 0 kts 292°
2026-04-27 16:08 54.37192 18.48885 489 ft 24 kts 309°
2026-04-27 16:08 54.37283 18.48492 558 ft 49 kts 301°
2026-04-27 16:08 54.37444 18.47835 634 ft 68 kts 300°
2026-04-27 16:09 54.37641 18.47003 709 ft 80 kts 301°
2026-04-27 16:09 54.37530 18.45163 935 ft 103 kts 211°
2026-04-27 16:09 54.36786 18.44795 1119 ft 129 kts 194°
2026-04-27 16:10 54.34917 18.44061 1357 ft 137 kts 193°
2026-04-27 16:10 54.33455 18.42151 1466 ft 143 kts 246°
2026-04-27 16:11 54.33025 18.40652 1485 ft 139 kts 250°
2026-04-27 16:11 54.32298 18.37598 1568 ft 138 kts 257°
2026-04-27 16:12 54.32186 18.34588 1693 ft 123 kts 290°
2026-04-27 16:12 54.32392 18.33133 1667 ft 127 kts 293°
2026-04-27 16:12 54.32860 18.30209 1681 ft 133 kts 291°
2026-04-27 16:13 54.33146 18.28713 1624 ft 132 kts 295°
2026-04-27 16:13 54.33805 18.25801 1480 ft 135 kts 295°
2026-04-27 16:13 54.34172 18.24355 1467 ft 122 kts 304°
2026-04-27 16:14 54.34600 18.21646 1465 ft 125 kts 269°
2026-04-27 16:14 54.33516 18.19443 1680 ft 131 kts 218°
2026-04-27 16:15 54.31986 18.17660 1441 ft 145 kts 220°
2026-04-27 16:15 54.30621 18.15817 1365 ft 113 kts 229°
2026-04-27 16:16 54.29362 18.13413 1624 ft 143 kts 237°
2026-04-27 16:16 54.28226 18.10661 1879 ft 144 kts 243°
2026-04-27 16:17 54.27141 18.07723 2002 ft 147 kts 242°
2026-04-27 16:17 54.25947 18.05286 1905 ft 121 kts 221°
2026-04-27 16:18 54.24692 18.03518 1686 ft 116 kts 225°
2026-04-27 16:18 54.23427 18.01815 1378 ft 120 kts 223°
2026-04-27 16:19 54.22831 18.00934 1382 ft 107 kts 226°
2026-04-27 16:19 54.22269 18.00149 1408 ft 102 kts 224°
2026-04-27 16:20 54.20474 17.97453 1624 ft 143 kts 230°
2026-04-27 16:20 54.19795 17.96284 1584 ft 137 kts 234°
2026-04-27 16:20 54.18668 17.93900 1699 ft 127 kts 231°
2026-04-27 16:21 54.18024 17.92850 1650 ft 125 kts 225°
2026-04-27 16:21 54.16427 17.90853 1389 ft 100 kts 224°
2026-04-27 16:22 54.15860 17.90203 1356 ft 99 kts 222°
2026-04-27 16:22 54.14879 17.88757 1148 ft 101 kts 193°
2026-04-27 16:22 54.14297 17.88503 1239 ft 73 kts 224°
2026-04-27 16:23 54.13975 17.87809 1137 ft 76 kts 246°
2026-04-27 16:23 54.13418 17.86041 971 ft 88 kts 249°
2026-04-27 16:23 54.13161 17.85223 697 ft 71 kts 255°
2026-04-27 16:24 54.12982 17.84604 517 ft 45 kts 259°
2026-04-27 16:24 54.12420 17.83132 943 ft 100 kts 238°
2026-04-27 16:25 54.11947 17.81305 1312 ft 75 kts 325°
2026-04-27 16:25 54.13077 17.79718 1621 ft 109 kts 326°
2026-04-27 16:26 54.14118 17.80197 1473 ft 96 kts 60°
2026-04-27 16:26 54.14581 17.81897 1322 ft 60 kts 58°
2026-04-27 16:27 54.14855 17.83285 1218 ft 68 kts 68°
2026-04-27 16:27 54.14641 17.85582 1007 ft 89 kts 146°
2026-04-27 16:28 54.13770 17.85895 865 ft 65 kts 198°
2026-04-27 16:28 54.13163 17.85207 615 ft 46 kts 250°
2026-04-27 16:29 54.12995 17.84798 523 ft 0 kts 73°
2026-04-27 16:31 54.13007 17.84837 524 ft 5 kts 58°
2026-04-27 16:32 54.13050 17.84870 519 ft 7 kts 212°
2026-04-27 16:32 54.13044 17.84804 522 ft 5 kts 252°
2026-04-27 16:33 54.12759 17.83985 717 ft 69 kts 245°
2026-04-27 16:33 54.12480 17.83251 901 ft 76 kts 250°
2026-04-27 16:33 54.12231 17.82465 968 ft 74 kts 254°
2026-04-27 16:33 54.12171 17.81687 1064 ft 60 kts 323°
2026-04-27 16:34 54.12572 17.81276 1105 ft 80 kts 334°
2026-04-27 16:34 54.13101 17.80821 1125 ft 89 kts 338°
2026-04-27 16:34 54.13651 17.80877 1127 ft 89 kts 43°
2026-04-27 16:34 54.13914 17.81817 1173 ft 86 kts 67°
2026-04-27 16:35 54.14093 17.82810 1226 ft 89 kts 67°
2026-04-27 16:35 54.14269 17.83836 1290 ft 83 kts 65°
2026-04-27 16:35 54.14642 17.85649 1122 ft 88 kts 63°
2026-04-27 16:36 54.14611 17.86504 1195 ft 72 kts 141°
2026-04-27 16:36 54.14177 17.86807 1086 ft 69 kts 154°
2026-04-27 16:36 54.13702 17.87032 1031 ft 73 kts 198°
2026-04-27 16:36 54.13530 17.86656 957 ft 55 kts 262°
2026-04-27 16:37 54.13355 17.85862 822 ft 55 kts 255°
2026-04-27 16:37 54.13185 17.85291 644 ft 56 kts 250°
2026-04-27 16:37 54.13022 17.84732 521 ft 45 kts 249°
2026-04-27 16:37 54.12935 17.84421 516 ft 25 kts 240°
2026-04-27 16:38 54.12700 17.83730 838 ft 90 kts 245°
2026-04-27 16:38 54.12355 17.82732 1139 ft 98 kts 244°
2026-04-27 16:38 54.12102 17.81650 1258 ft 92 kts 305°
2026-04-27 16:38 54.12562 17.81096 1265 ft 79 kts 332°
2026-04-27 16:39 54.13097 17.80549 1254 ft 99 kts 333°
2026-04-27 16:39 54.13709 17.80029 1344 ft 93 kts 350°
2026-04-27 16:39 54.14078 17.80811 1420 ft 105 kts 70°
2026-04-27 16:39 54.14274 17.81870 1421 ft 86 kts 60°
2026-04-27 16:40 54.14445 17.82825 1450 ft 85 kts 64°
2026-04-27 16:40 54.14550 17.83485 1412 ft 84 kts 61°
2026-04-27 16:40 54.14758 17.84420 1405 ft 85 kts 63°
2026-04-27 16:40 54.14982 17.85479 1417 ft 109 kts 61°
2026-04-27 16:41 54.15613 17.86120 1514 ft 114 kts 358°
2026-04-27 16:41 54.16202 17.85365 1634 ft 114 kts 296°
2026-04-27 16:41 54.16000 17.84051 1632 ft 129 kts 231°
2026-04-27 16:41 54.15125 17.83566 1506 ft 137 kts 171°
2026-04-27 16:42 54.14325 17.84313 1515 ft 130 kts 133°
2026-04-27 16:42 54.13876 17.85506 1588 ft 109 kts 70°
2026-04-27 16:42 54.14152 17.86736 1532 ft 110 kts 62°
2026-04-27 16:42 54.14416 17.87959 1589 ft 110 kts 63°
2026-04-27 16:43 54.14837 17.89023 1611 ft 111 kts 38°
2026-04-27 16:43 54.15456 17.89863 1620 ft 111 kts 33°
2026-04-27 16:43 54.16060 17.90703 1591 ft 114 kts 34°
2026-04-27 16:43 54.16662 17.91587 1629 ft 110 kts 30°
2026-04-27 16:44 54.17270 17.92337 1640 ft 106 kts 33°
2026-04-27 16:44 54.17837 17.93233 1623 ft 115 kts 38°
2026-04-27 16:44 54.18424 17.94178 1666 ft 115 kts 35°
2026-04-27 16:44 54.19045 17.95099 1591 ft 120 kts 37°
2026-04-27 16:45 54.19614 17.96089 1700 ft 114 kts 45°
2026-04-27 16:45 54.20113 17.97140 1768 ft 114 kts 45°
2026-04-27 16:45 54.20613 17.98239 1775 ft 120 kts 46°
2026-04-27 16:45 54.21169 17.99312 1721 ft 123 kts 41°
2026-04-27 16:46 54.21777 18.00265 1762 ft 117 kts 35°
2026-04-27 16:46 54.22413 18.01101 1747 ft 117 kts 31°
2026-04-27 16:46 54.23073 18.01919 1726 ft 119 kts 31°
2026-04-27 16:46 54.23730 18.02740 1724 ft 114 kts 31°
2026-04-27 16:47 54.24393 18.03501 1652 ft 117 kts 31°
2026-04-27 16:47 54.25098 18.04271 1560 ft 122 kts 30°
2026-04-27 16:47 54.25773 18.05114 1580 ft 118 kts 37°
2026-04-27 16:47 54.26016 18.06424 1497 ft 131 kts 90°
2026-04-27 16:48 54.25858 18.07929 1483 ft 121 kts 89°
2026-04-27 16:48 54.26098 18.09154 1558 ft 110 kts 45°
2026-04-27 16:48 54.26625 18.10109 1687 ft 111 kts 39°
2026-04-27 16:49 54.27816 18.12000 1654 ft 124 kts 38°
2026-04-27 16:49 54.28488 18.12974 1541 ft 121 kts 30°
2026-04-27 16:49 54.29148 18.13800 1588 ft 116 kts 31°
2026-04-27 16:49 54.29804 18.14670 1538 ft 121 kts 34°
2026-04-27 16:50 54.30454 18.15595 1518 ft 122 kts 36°
2026-04-27 16:50 54.31095 18.16525 1531 ft 118 kts 35°
2026-04-27 16:50 54.31701 18.17441 1553 ft 117 kts 37°
2026-04-27 16:50 54.32288 18.18440 1570 ft 119 kts 42°
2026-04-27 16:51 54.32701 18.19702 1593 ft 125 kts 65°
2026-04-27 16:51 54.33049 18.21041 1592 ft 125 kts 59°
2026-04-27 16:51 54.33421 18.22416 1595 ft 128 kts 71°
2026-04-27 16:51 54.33440 18.23954 1661 ft 129 kts 85°
2026-04-27 16:52 54.33394 18.25535 1583 ft 133 kts 89°
2026-04-27 16:52 54.33284 18.27087 1638 ft 130 kts 90°
2026-04-27 16:52 54.33164 18.28673 1562 ft 136 kts 94°
2026-04-27 16:52 54.33041 18.30273 1424 ft 136 kts 91°
2026-04-27 16:53 54.33034 18.31848 1389 ft 130 kts 77°
2026-04-27 16:53 54.33012 18.33357 1368 ft 108 kts 87°
2026-04-27 16:53 54.32928 18.34422 1373 ft 79 kts 83°
2026-04-27 16:53 54.32904 18.35466 1289 ft 98 kts 79°
2026-04-27 16:54 54.32959 18.36647 1323 ft 98 kts 76°
2026-04-27 16:54 54.33085 18.37807 1327 ft 99 kts 70°
2026-04-27 16:54 54.33273 18.38944 1291 ft 98 kts 68°
2026-04-27 16:54 54.33443 18.40054 1317 ft 97 kts 69°
2026-04-27 16:55 54.33653 18.41144 1335 ft 94 kts 60°
2026-04-27 16:55 54.33893 18.42147 1333 ft 91 kts 55°
2026-04-27 16:55 54.34190 18.43130 1260 ft 95 kts 53°
2026-04-27 16:55 54.34520 18.44071 1198 ft 89 kts 41°
2026-04-27 16:56 54.35058 18.44606 1108 ft 89 kts 22°
2026-04-27 16:56 54.35451 18.45064 1110 ft 65 kts 63°
2026-04-27 16:56 54.35453 18.45922 1127 ft 75 kts 90°
2026-04-27 16:56 54.35282 18.46725 1146 ft 74 kts 96°
2026-04-27 16:57 54.35124 18.47635 1201 ft 83 kts 92°
2026-04-27 16:57 54.34972 18.48590 1240 ft 83 kts 98°
2026-04-27 16:57 54.34757 18.49436 1250 ft 73 kts 101°
2026-04-27 16:57 54.34905 18.50043 1242 ft 46 kts 23°
2026-04-27 16:58 54.35201 18.50284 1173 ft 48 kts 21°
2026-04-27 16:58 54.35486 18.50490 1025 ft 49 kts 23°
2026-04-27 16:58 54.35837 18.50769 979 ft 48 kts 23°
2026-04-27 16:58 54.36129 18.51023 941 ft 43 kts 19°
2026-04-27 16:59 54.36412 18.51078 860 ft 43 kts 347°
2026-04-27 16:59 54.36668 18.50741 825 ft 45 kts 321°
2026-04-27 16:59 54.36836 18.50253 746 ft 48 kts 310°
2026-04-27 16:59 54.36973 18.49730 665 ft 47 kts 311°
2026-04-27 17:00 54.37183 18.48936 511 ft 36 kts 304°
2026-04-27 17:00 54.37337 18.48286 551 ft 56 kts 300°
2026-04-27 17:00 54.37505 18.47593 639 ft 68 kts 303°
2026-04-27 17:01 54.37701 18.46829 676 ft 77 kts 302°
2026-04-27 17:01 54.37899 18.46043 756 ft 67 kts 304°
2026-04-27 17:01 54.38078 18.45375 759 ft 63 kts 305°
2026-04-27 17:01 54.37863 18.44666 844 ft 88 kts 208°
2026-04-27 17:02 54.37242 18.44230 1033 ft 107 kts 203°
2026-04-27 17:02 54.36468 18.44355 1414 ft 128 kts 128°
2026-04-27 17:02 54.36065 18.45736 1432 ft 138 kts 99°
2026-04-27 17:02 54.35804 18.47075 1425 ft 104 kts 99°
2026-04-27 17:03 54.35538 18.48355 1425 ft 107 kts 102°
2026-04-27 17:03 54.35253 18.49498 1385 ft 105 kts 107°
2026-04-27 17:03 54.34986 18.50582 1381 ft 90 kts 83°
2026-04-27 17:03 54.35374 18.51322 1298 ft 69 kts 20°
2026-04-27 17:04 54.35742 18.51535 1150 ft 59 kts 10°
2026-04-27 17:04 54.36144 18.51601 1014 ft 52 kts 359°
2026-04-27 17:04 54.36482 18.51434 939 ft 51 kts 330°
2026-04-27 17:04 54.36670 18.50927 833 ft 44 kts 313°
2026-04-27 17:05 54.36795 18.50455 721 ft 44 kts 308°
2026-04-27 17:05 54.36911 18.49990 629 ft 38 kts 314°
2026-04-27 17:05 54.37030 18.49532 596 ft 40 kts 306°
2026-04-27 17:05 54.37099 18.49264 530 ft 32 kts 314°
2026-04-27 17:06 54.37167 18.49072 490 ft 3 kts 43°
2026-04-27 17:06 54.37194 18.49105 489 ft 5 kts 27°
2026-04-27 17:06 54.37224 18.49124 492 ft 2 kts 14°
2026-04-27 17:06 54.37232 18.49127 492 ft 9 kts 17°
2026-04-27 17:07 54.37278 18.49158 492 ft 5 kts 31°
2026-04-27 17:07 54.37296 18.49211 490 ft 8 kts 112°
2026-04-27 17:07 54.37290 18.49313 488 ft 8 kts 34°
2026-04-27 17:07 54.37334 18.49337 493 ft 6 kts 26°
2026-04-27 17:08 54.37365 18.49361 493 ft 4 kts 24°
2026-04-27 17:08 54.37382 18.49389 491 ft 0 kts 118°